Regional Weather Roundup
Issued by NWS Green Bay, WI

Home | Current Version | Previous Version | Graphics & Text | Print | Product List | Glossary Off
Versions: 1 2 3 4 5 6 7 8 9 10 11 12 13 14 15 16 17 18 19 20 21 22 23 24 25 26 27 28 29 30 31 32 33 34 35 36 37 38 39 40 41 42 43 44 45 46 47 48 49 50

000
ASUS43 KGRB 061400
RWRGRB

NORTH-CENTRAL AND NORTHEAST WISCONSIN REGIONAL WEATHER ROUNDUP
NATIONAL WEATHER SERVICE GREEN BAY WI
800 AM CST TUE DEC 06 2016

WIZ005-009-010>012-018-019-061500-
NORTH CENTRAL WISCONSIN

CITY           SKY/WX    TMP DP  RH WIND       PRES   REMARKS
IRONWOOD       LGT SNOW  33  29  85 S14G21    29.59F FOG
MANITOWISH WTR NOT AVBL
ARBOR VITAE    NOT AVBL
EAGLE RIVER    NOT AVBL
LAND O LAKES   NOT AVBL
RHINELANDER    CLOUDY    31  29  92 SE9       29.68F FOG
PHILLIPS       NOT AVBL
ANTIGO         NOT AVBL
TOMAHAWK       NOT AVBL
MERRILL        NOT AVBL
$$

WIZ013-073-061500-
NORTHEAST WISCONSIN

CITY           SKY/WX    TMP DP  RH WIND       PRES   REMARKS
IRON MOUNTAIN  CLOUDY    36  32  85 S10       29.73F
MARINETTE      CLOUDY    39  35  86 S9        29.78F
$$

WIZ017-030-035>037-045-061500-
CENTRAL WISCONSIN

CITY           SKY/WX    TMP DP  RH WIND       PRES   REMARKS
MEDFORD        NOT AVBL
WAUSAU         CLOUDY    30  28  92 SE8       29.70F FOG
MOSINEE        CLOUDY    30  30 100 S9        29.73F FOG
MARSHFIELD     CLOUDY    30  28  92 S12       29.70F FOG
WISC RAPIDS    CLOUDY    31  30  96 S8        29.75F
STEVENS POINT  NOT AVBL
WAUPACA        NOT AVBL
SHAWANO        NOT AVBL
CLINTONVILLE   NOT AVBL
WAUTOMA        CLOUDY    31  30  96 S5        29.78F FOG
$$

WIZ038-039-048-051-061500-
FOX VALLEY

CITY           SKY/WX    TMP DP  RH WIND       PRES   REMARKS
NWS GREEN BAY  CLOUDY    37  35  92 SW6       29.78F
APPLETON       CLOUDY    34  32  93 SW9       29.77F FOG
OSHKOSH        CLOUDY    33  31  92 SW6       29.78F FOG
FOND DU LAC    CLOUDY    34  30  85 SW7       29.79F FOG
$$

WIZ022-050-052-061500-
EAST CENTRAL WISCONSIN

CITY           SKY/WX    TMP DP  RH WIND       PRES   REMARKS
EPHRAIM        NOT AVBL
WASHINGTON ISL NOT AVBL
STURGEON BAY   CLOUDY    37  33  85 SE13G18   29.79F
MANITOWOC      NOT AVBL
SHEBOYGAN      CLOUDY    37  33  85 S5        29.80S
$$

LMZ563-521-522-541>543-061500-
LAKESHORE

STATION/POSITION TIME  TEMP    WIND        PRES    VSBY  WAVE
                       AIR SEA DIR/SP/G                  HT/PER
                 (UTC) (F)     (DEG/KT/KT) (MB)    (MI)  (FT/S)
SHEBOYGAN LKSHOR 1300   40     140/ 15/ 16 1009.4F
KEWAUNEE LKSHORE 1330   38     170/ 17/ 20 1008.6F
ALGOMA MARINA    1321          180/ 19/ 25   N/A
NORTHPORT PIER   1340   39     160/ 13/ 18 1009.5F
SISTER BAY LKSHO 1308   39     160/ 14/ 19   N/A
CHAMBERS ISLAND  1330   38     140/ 10/ 16 1008.5F
MENOMINEE LKSHOR 1330   39     140/ 17/ 21 1007.7F
$$




USA.gov is the U.S. government's official web portal to all federal, state and local government web resources and services.